[[{"header":{"parameterUnit":"m.s-1","parameterCategory":1,"la1":30.2992,"la2":30.254,"lo1":-89.0895,"lo2":-89.0443,"dy":0.0025,"dx":0.0025,"nx":19,"ny":19,"refTime":"2026-03-21T03:00:00:Z","depth":0,"parameterNumber":2,"parameterNumberName":"U-component_of_WINDS"},"data":[0,0,0,3.5781,3.5783,3.59,3.59,3.6043,3.6045,0,0,0,0,0,0,0,0,0,0,0,3.5743,3.5744,3.5781,3.5784,3.59,3.59,3.6043,3.6045,0,0,0,0,0,0,0,0,0,0,0,3.5743,3.5744,3.5745,3.5784,3.59,3.59,3.6043,3.5957,0,0,0,0,0,0,0,0,0,0,3.5845,3.5807,3.5743,3.5745,3.5785,3.5899,3.59,3.5953,3.5962,3.5988,0,3.601,0,3.603,3.6054,3.6054,0,0,0,3.5786,3.5799,3.5833,3.5745,3.5786,3.5899,3.5848,3.5958,3.5969,3.6001,3.6012,3.6018,3.6032,3.6055,3.6055,3.6195,3.6195,0,0,3.578,3.5762,3.5826,3.584,3.5822,3.5844,3.5852,3.5965,3.5976,3.6013,3.6021,3.6034,3.6056,3.6057,3.6194,3.6195,0,0,0,3.576,3.5757,3.5789,3.5834,3.5855,3.5848,3.5856,3.5971,3.5983,3.6023,3.6036,3.6056,3.6058,3.6194,3.6195,3.6203,0,0,0,3.5756,3.5746,3.5786,3.5777,3.5853,3.5915,3.586,3.5975,3.5989,3.6035,3.6056,3.6059,3.6193,3.6194,3.6202,3.621,0,0,0,3.5737,3.5743,3.5759,3.5775,3.5825,3.5913,3.5932,3.5979,3.5997,3.6054,3.606,3.6193,3.6194,3.62,3.6208,3.6241,0,0,0,3.5711,3.5765,3.5759,3.5824,3.5824,3.5918,3.5931,3.6002,3.6053,3.6057,3.6193,3.6195,3.62,3.6206,3.6239,3.6265,3.6274,0,0,3.5769,3.5771,3.5811,3.5809,3.59,3.5901,3.5994,3.6057,3.6079,3.6155,3.6159,3.6202,3.6207,3.624,3.6333,3.634,0,0,0,3.5824,3.5852,3.588,3.5927,3.5977,3.602,3.6071,3.6095,3.616,3.6114,3.6224,3.6228,3.6248,3.6261,3.6267,3.6285,3.62,3.62,3.62,3.588,3.5905,3.5973,3.6012,3.6058,3.611,3.615,3.619,3.6202,3.6228,3.625,3.6303,3.6318,3.6323,3.6341,3.6267,3.6267,3.6267,3.6267,3.5967,3.6011,3.6026,3.6097,3.6124,3.6184,3.6237,3.6243,3.6303,3.6289,3.6308,3.6289,3.633,3.6347,3.6268,3.6267,3.6267,3.6267,3.6267,3.6005,3.6031,3.6059,3.613,3.6182,3.622,3.6277,3.6299,3.6321,3.634,3.6365,3.6365,3.6367,3.6351,3.6351,3.6351,3.6351,3.6351,3.6351,3.6034,3.6065,3.611,3.6168,3.6201,3.6248,3.6302,3.6335,3.6378,3.639,3.639,3.6399,3.6329,3.6311,3.6354,3.6354,3.6353,3.6353,3.6353,3.6111,3.6097,3.6167,3.62,3.627,3.632,3.6348,3.6415,3.6446,3.6473,3.6479,3.6424,3.6427,3.6423,3.6407,3.6473,3.6473,3.6473,3.6473,3.6143,3.6147,3.6223,3.6275,3.6329,3.6362,3.644,3.6482,3.6524,3.6544,3.6538,3.652,3.6515,3.6522,3.6515,3.6501,3.6589,3.659,3.659,3.6191,3.6202,3.6263,3.6304,3.6361,3.6409,3.6482,3.6541,3.6586,3.6595,3.6561,3.6556,3.6527,3.6517,3.6523,3.6512,3.6487,0,0]},{"header":{"parameterUnit":"m.s-1","parameterCategory":1,"la1":30.2992,"la2":30.254,"lo1":-89.0895,"lo2":-89.0443,"dy":0.0025,"dx":0.0025,"nx":19,"ny":19,"refTime":"2026-03-21T03:00:00:Z","depth":0,"parameterNumber":3,"parameterNumberName":"V-component_of_WINDS"},"data":[0,0,0,1.7801,1.7801,1.7786,1.7786,1.7774,1.7774,0,0,0,0,0,0,0,0,0,0,0,1.781,1.7811,1.7801,1.7801,1.7786,1.7786,1.7774,1.7774,0,0,0,0,0,0,0,0,0,0,0,1.781,1.7811,1.7811,1.7801,1.7786,1.7786,1.7774,1.7782,0,0,0,0,0,0,0,0,0,0,1.7796,1.781,1.7811,1.7811,1.7801,1.7786,1.7785,1.7783,1.7782,1.7784,0,1.7788,0,1.7781,1.7774,1.7774,0,0,0,1.7797,1.7811,1.7802,1.7811,1.78,1.7786,1.7791,1.7782,1.7781,1.7783,1.7788,1.7787,1.7781,1.7774,1.7774,1.7801,1.7801,0,0,1.7798,1.781,1.7802,1.7802,1.7805,1.7792,1.7791,1.7782,1.7787,1.7788,1.7787,1.7781,1.7774,1.7774,1.7801,1.7801,0,0,0,1.7803,1.7811,1.7803,1.7802,1.7799,1.7791,1.779,1.7788,1.7784,1.7787,1.778,1.7774,1.7774,1.78,1.7801,1.7829,0,0,0,1.7803,1.7814,1.7803,1.7811,1.7799,1.7793,1.7797,1.7784,1.7783,1.778,1.7774,1.7774,1.78,1.78,1.7827,1.784,0,0,0,1.781,1.7815,1.7815,1.7812,1.7806,1.7793,1.7788,1.7784,1.7779,1.7774,1.7774,1.78,1.78,1.7826,1.7838,1.7851,0,0,0,1.7821,1.784,1.7815,1.7834,1.7806,1.7811,1.7788,1.7791,1.779,1.7774,1.78,1.7801,1.7826,1.7836,1.785,1.7864,1.7872,0,0,1.7852,1.7844,1.7854,1.7832,1.7844,1.7812,1.7828,1.7815,1.7802,1.7802,1.7802,1.7828,1.7838,1.7851,1.7909,1.7915,0,0,0,1.7868,1.7876,1.7876,1.7876,1.7866,1.7858,1.784,1.7835,1.7834,1.7805,1.7836,1.7841,1.7848,1.7855,1.786,1.7865,1.7804,1.7804,1.7804,1.7931,1.7914,1.793,1.7911,1.7911,1.7892,1.789,1.7879,1.7862,1.787,1.787,1.7907,1.7916,1.7919,1.7925,1.7876,1.7876,1.7877,1.7877,1.7976,1.7983,1.796,1.7967,1.7949,1.7954,1.7936,1.7924,1.7926,1.7906,1.7912,1.7892,1.7926,1.793,1.7879,1.7878,1.7878,1.7878,1.7878,1.8015,1.8016,1.8009,1.8006,1.8006,1.7986,1.7989,1.7972,1.7956,1.7961,1.7959,1.7958,1.7956,1.7961,1.7961,1.7962,1.7962,1.7962,1.7962,1.8058,1.805,1.8055,1.8046,1.8043,1.8037,1.8018,1.8015,1.8007,1.7994,1.7994,1.7976,1.7933,1.7923,1.7964,1.7963,1.7963,1.7963,1.7963,1.8109,1.8095,1.8103,1.81,1.8088,1.8088,1.8067,1.8061,1.8055,1.8057,1.8038,1.8009,1.8,1.7995,1.7987,1.8042,1.8042,1.8042,1.8042,1.8143,1.8136,1.814,1.8137,1.8131,1.8112,1.8121,1.8106,1.8089,1.8084,1.8074,1.8061,1.8057,1.805,1.8044,1.8036,1.8102,1.8102,1.8102,1.8173,1.8165,1.8176,1.8159,1.8148,1.8139,1.8146,1.8143,1.812,1.8104,1.808,1.8078,1.8056,1.805,1.8034,1.8026,1.8011,0,0]}]]